Location: Risskov
(56.1972°N, 10.2480°E)
Time: 00:05:31
(UTC+00:00)

SL-16 R/B - Pass Details

Date: 05 July 2020
Orbit: 839 x 850 km, 71.0° (Epoch: 03 August)

Event Time Altitude Azimuth Distance (km) Brightness Sun altitude
Exits shadow 21:19:02 - 130° (SE) 2,803 4.3 -6.8°
Reaches altitude 10° 21:20:58 10° 113° (ESE) 2,470 4.2 -7.0°
Maximum altitude 21:22:49 12° 94° (E) 2,357 4.2 -7.1°
Drops below altitude 10° 21:24:40 10° 75° (ENE) 2,479 4.5 -7.2°
Sets 21:28:56 0° 44° (NE) 3,424 5.6 -7.5°
